Location: Unspecified
(43.4680°N, 87.1740°E)
Time: 20:46:27
(UTC+00:00)

Cosmos 1992 Rocket - Pass Details

Date: 17 April 2021
Orbit: 759 x 765 km, 74.0° (Epoch: 11 May)

Event Time Altitude Azimuth Distance (km) Brightness Sun altitude
Rises 14:28:10 0° 339° (NNW) 3,229 8.1 -15.9°
Reaches altitude 10° 14:30:33 10° 340° (NNW) 2,300 7.3 -16.3°
Maximum altitude 14:35:47 88° 66° (ENE) 767 3.9 -17.1°
Enters shadow 14:38:57 24° 160° (SSE) 1,521 5.1 -17.6°
